Theta_e
317 319 320 319 320 322 327 334 338 340 344 343 344 346 342 349 351 354 346 342 340 331 326 325 329 328 329 333 335 337 340 341 336 333 333 332 334 334 333 334 339 341 342 342 342 342 342 341 340
318 320 319 313 322 329 332 326 337 333 336 341 349 355 357 359 351 346 343 342 339 331 326 325 328 329 328 330 331 335 337 339 337 334 334 334 333 334 334 334 335 339 340 340 340 340 338 337 337
320 320 314 316 318 326 325 325 329 322 346 346 351 348 355 358 349 345 342 343 341 333 327 325 327 329 328 328 330 330 332 334 335 334 334 335 335 334 334 335 336 338 337 334 332 332 331 332 332
318 313 309 315 322 321 324 322 319 323 343 338 347 354 350 345 347 343 340 340 342 336 329 326 326 330 328 328 328 329 329 329 331 333 334 336 337 336 335 335 336 336 334 331 330 330 331 332 333
313 308 313 316 317 316 316 317 314 323 340 344 349 357 353 348 346 346 343 342 341 339 332 327 326 329 330 329 328 328 328 329 329 333 335 336 337 338 338 337 336 337 337 336 334 333 333 334 334
311 308 312 315 316 315 314 315 313 331 346 353 355 355 351 348 349 349 347 345 342 339 335 330 327 327 331 331 329 329 328 328 328 331 334 336 338 339 339 339 339 338 338 338 337 337 337 337 336
312 310 313 315 316 315 317 313 315 338 341 348 351 357 346 347 348 349 348 346 344 342 339 333 330 327 329 332 331 330 330 328 328 329 331 336 340 341 346 345 345 344 342 342 339 338 337 338 338
307 308 314 313 314 317 316 313 314 338 341 342 340 351 348 343 346 348 347 346 344 342 341 337 334 329 328 331 333 332 330 329 328 328 328 332 338 339 343 345 344 345 344 344 344 342 340 338 338
308 309 310 314 315 316 313 314 314 319 346 340 340 340 340 345 347 347 348 349 349 347 345 340 338 335 329 328 332 333 332 331 331 328 327 329 333 336 338 342 342 345 343 344 344 343 341 340 338
309 308 311 312 314 315 313 314 315 317 334 343 350 342 344 348 348 347 347 347 348 349 348 343 341 340 336 329 329 332 333 332 331 330 328 327 329 332 334 336 335 338 340 342 342 342 341 338 335
310 312 311 314 312 312 313 314 315 317 327 335 345 343 345 347 347 346 345 345 345 345 345 343 340 340 340 336 330 330 334 333 332 331 329 326 327 329 332 332 332 333 334 336 335 334 333 334 336
315 312 312 314 314 315 315 315 316 314 317 328 341 341 344 346 345 344 343 344 344 345 343 342 342 344 343 340 334 331 332 334 332 330 330 328 326 327 328 329 329 330 333 336 338 336 330 331 334
313 314 312 313 313 313 312 313 315 314 320 341 343 342 344 344 344 345 345 343 342 343 343 344 343 342 341 342 340 334 332 333 331 330 330 330 327 326 326 329 331 334 336 338 340 339 335 331 333
314 315 316 316 316 314 315 316 315 317 338 344 346 345 344 344 344 344 345 344 342 339 340 341 342 341 339 339 341 339 335 333 333 331 329 330 329 326 326 327 336 338 339 340 340 340 340 338 335
317 319 316 318 318 319 315 320 319 317 339 341 346 346 345 344 344 344 344 344 343 341 341 338 340 339 340 338 339 339 336 334 333 331 329 329 330 329 327 327 330 339 341 341 340 341 341 341 340
317 315 317 317 317 317 318 320 318 318 332 330 338 346 339 344 345 344 344 343 343 343 343 342 340 338 337 337 337 337 335 334 332 330 329 328 329 330 329 329 329 331 335 339 342 341 341 342 341
312 318 318 317 317 319 319 319 318 318 316 319 318 338 340 338 344 345 344 344 343 343 341 341 341 338 336 334 334 334 332 332 330 330 330 330 329 330 331 333 335 337 338 339 343 343 342 342 341
318 318 317 318 319 317 318 318 316 323 325 325 325 319 334 335 339 342 344 343 341 339 334 336 339 337 338 338 336 335 333 334 335 333 332 334 334 335 338 338 339 340 341 342 344 343 343 341 340
318 318 318 317 317 320 319 318 325 325 327 327 326 329 333 329 336 339 340 342 342 340 339 337 335 337 338 336 336 336 335 337 338 338 338 337 338 339 340 339 340 340 342 344 343 341 341 341 341
317 319 318 317 317 318 318 319 327 326 328 327 328 332 335 334 335 336 337 338 338 339 339 339 340 340 339 340 337 338 340 339 340 342 340 344 346 346 344 344 343 343 343 343 339 339 337 339 340
317 318 318 319 318 318 319 319 323 325 327 327 326 326 334 338 337 336 333 333 335 335 335 336 339 341 344 343 342 343 344 347 346 346 347 347 347 348 346 346 346 346 345 344 339 335 330 328 335
320 317 318 319 319 321 317 320 317 327 328 327 326 327 326 328 329 331 331 330 330 330 329 330 333 335 338 341 345 344 342 342 340 339 339 341 344 343 339 340 342 345 345 343 341 338 330 328 332
318 319 319 319 319 318 319 317 316 328 330 329 326 327 325 325 324 323 324 326 327 327 327 328 328 329 330 332 335 331 333 335 334 339 335 336 338 340 334 337 332 333 343 342 341 336 331 327 330
319 320 318 315 314 320 321 319 319 330 330 328 325 325 324 323 321 320 320 320 320 321 321 322 322 321 322 323 324 328 330 330 331 332 331 331 333 336 339 341 342 341 336 335 336 334 332 330 330
319 320 323 322 321 323 323 323 321 330 328 327 325 324 323 321 319 318 319 319 318 317 317 318 319 320 319 318 317 319 321 322 323 324 326 329 329 329 330 334 336 336 337 337 336 336 334 331 328
321 319 322 328 326 324 323 327 325 328 325 323 322 321 321 319 319 318 318 318 317 317 317 316 316 315 315 317 317 317 316 317 317 320 322 321 320 319 320 324 326 327 328 330 331 332 332 332 330
323 322 319 324 323 328 324 328 326 328 327 326 324 321 320 319 318 319 318 318 316 315 315 315 315 315 315 315 315 314 313 313 313 314 317 319 318 316 316 316 318 319 318 325 327 328 331 331 330
321 319 326 321 327 324 323 329 327 330 328 326 325 322 320 319 319 319 319 318 317 317 317 316 314 314 314 313 313 313 313 313 312 313 312 312 315 316 316 314 315 316 317 315 324 325 328 329 329
322 324 321 321 322 325 325 325 320 324 325 326 325 323 320 319 319 319 319 319 318 317 316 316 316 314 313 313 313 312 312 312 312 313 313 313 312 312 313 314 313 315 317 316 315 322 321 325 327
315 317 319 320 320 319 320 321 316 319 321 322 322 322 319 318 318 317 318 319 318 314 314 312 312 312 313 313 313 314 314 312 312 312 312 312 313 313 313 312 311 312 316 316 315 315 317 320 321
Wind_Speed
2 2 2 3 4 5 3 5 2 4 3 3 7 4 7 0 4 4 1 14 32 32 29 26 24 23 21 21 20 20 20 20 20 20 19 18 17 17 17 18 18 17 17 17 16 16 16 14 14
2 4 3 2 5 4 4 5 6 5 4 7 4 3 3 3 4 4 12 18 31 33 30 28 26 22 22 21 21 20 20 20 19 20 19 18 16 16 16 17 17 17 17 15 13 13 13 12 11
2 2 3 4 3 3 1 4 7 8 4 4 2 4 1 2 2 14 10 27 32 33 31 28 27 24 22 21 20 20 20 20 19 19 18 17 16 15 15 15 15 15 16 15 13 12 12 11 10
1 5 4 4 2 3 4 5 6 6 2 5 3 1 3 8 5 12 26 31 36 33 31 28 26 24 22 21 19 18 18 18 18 17 17 15 15 14 14 14 14 13 12 12 12 11 9 8 8
4 3 4 3 3 4 5 5 6 4 1 3 4 1 2 5 3 18 27 33 37 33 29 27 26 24 21 20 19 18 17 17 17 16 15 14 13 12 11 11 12 11 10 9 8 7 6 6 6
4 3 5 1 3 6 7 5 5 1 3 2 4 4 2 2 10 19 25 32 33 35 32 29 26 24 22 20 19 18 17 16 15 15 15 13 12 11 10 8 8 7 7 7 6 5 4 3 3
6 4 4 3 2 5 5 9 5 2 3 3 3 4 3 1 8 17 24 30 28 31 32 30 30 27 24 21 20 18 16 15 15 15 14 14 13 11 10 8 6 4 3 3 3 1 1 1 0
5 4 2 2 1 4 4 8 4 3 1 4 3 3 3 4 17 17 22 24 25 31 33 31 29 28 26 23 20 17 16 15 15 14 14 14 13 12 10 9 8 7 5 3 3 2 2 3 4
3 5 1 3 2 3 4 9 6 4 2 1 3 4 4 26 23 22 21 15 18 24 32 32 31 27 27 24 21 19 17 15 14 14 14 14 14 12 11 9 7 8 7 6 6 5 4 5 6
5 4 9 4 2 4 4 3 4 5 1 3 2 5 22 26 25 22 22 22 20 23 28 31 29 28 26 26 25 23 20 19 16 15 14 14 13 13 12 10 10 9 9 8 7 7 8 7 6
2 5 5 4 7 5 3 5 3 2 3 7 6 12 14 20 19 19 21 25 32 33 34 36 35 32 30 29 28 26 23 21 18 17 15 15 14 14 14 12 12 10 9 9 9 8 9 8 6
1 3 4 5 3 3 4 2 3 6 7 3 5 16 14 14 14 20 21 24 28 30 37 39 36 32 30 29 29 28 26 23 20 20 18 18 17 17 16 14 12 11 10 9 9 10 10 10 7
2 3 4 8 9 5 4 5 3 7 10 3 10 13 13 13 17 19 18 24 29 31 35 35 36 37 34 30 27 27 26 24 23 22 21 20 19 19 17 16 14 13 12 12 11 12 11 12 10
5 3 6 6 5 2 1 4 1 4 3 4 10 13 13 15 20 15 21 28 31 35 36 36 35 34 33 32 30 27 26 26 25 23 22 22 21 20 19 18 16 14 14 14 15 15 17 15 14
2 4 6 2 2 2 2 7 2 5 3 7 8 8 13 13 16 25 31 31 36 39 33 34 35 33 33 33 32 31 29 29 28 25 24 24 23 22 22 20 18 16 15 17 19 18 17 18 16
4 5 4 4 6 2 4 6 3 6 2 8 8 5 5 9 20 24 23 33 37 31 27 28 33 33 34 34 32 31 30 29 29 27 25 24 24 24 23 21 20 20 21 20 19 20 20 17 17
7 1 3 8 3 1 4 6 6 12 10 8 10 6 8 7 12 24 26 32 36 32 26 26 30 34 34 33 32 32 31 30 29 28 24 23 24 23 24 24 21 18 18 19 17 17 15 15 15
2 3 4 4 2 7 3 6 7 8 8 9 12 9 6 7 14 17 19 15 11 13 11 9 16 20 26 27 28 29 29 30 28 28 24 20 21 22 22 22 21 17 17 15 15 12 12 13 13
2 2 3 6 5 1 3 1 8 11 14 17 13 9 8 6 9 8 8 7 9 13 15 15 15 16 15 19 19 23 26 28 29 27 24 22 19 22 24 24 23 18 18 15 11 11 9 9 11
3 2 7 7 3 4 5 3 5 9 7 10 11 10 8 7 9 15 19 14 15 15 16 13 12 11 14 19 20 18 13 20 25 19 21 16 16 16 16 17 16 15 14 10 5 7 8 8 13
4 4 5 8 7 2 1 3 4 2 5 12 13 10 12 11 11 11 18 21 26 25 25 24 21 17 8 7 10 12 11 8 4 2 7 6 7 10 14 12 14 14 16 20 18 16 15 12 14
4 8 7 5 3 3 2 4 2 5 6 10 12 14 14 13 11 13 19 23 24 24 31 33 37 31 28 19 3 4 9 8 13 11 8 2 5 7 3 1 4 10 19 22 26 30 21 17 21
9 2 4 3 4 3 1 4 5 4 5 6 10 10 11 11 11 12 17 19 22 31 36 41 45 46 42 33 20 15 20 14 15 8 5 9 8 2 9 13 31 19 27 28 27 25 26 22 23
2 2 6 4 3 1 3 5 4 3 3 4 5 7 9 9 9 12 17 24 29 29 32 36 41 41 42 40 38 38 22 20 19 16 16 17 15 11 9 5 8 16 20 18 17 21 21 20 24
4 5 3 4 3 5 3 3 5 4 2 2 0 3 5 5 7 8 12 20 26 33 36 39 38 32 35 27 26 22 20 18 18 16 16 15 17 19 16 9 5 6 13 17 23 23 21 20 17
5 8 5 5 4 4 2 4 4 4 5 4 3 0 1 3 4 6 10 14 19 25 29 29 28 26 22 21 23 17 16 15 15 15 13 13 14 14 13 12 12 11 10 11 14 14 15 18 16
5 3 3 7 4 2 3 3 4 4 6 5 6 4 4 5 6 7 7 12 18 22 22 25 25 22 15 16 14 15 14 12 12 13 11 9 9 12 12 12 12 13 15 15 17 18 17 15 15
4 5 3 2 3 4 3 3 5 10 12 9 9 9 7 6 5 4 6 12 12 11 11 12 16 17 14 14 8 8 7 10 7 8 8 7 7 8 11 14 14 14 16 17 16 18 17 15 13
3 2 6 4 4 5 2 5 6 11 12 15 14 12 11 8 5 4 6 5 4 5 10 11 11 12 11 7 9 11 10 9 8 6 6 6 7 7 8 10 13 14 15 17 17 16 17 15 15
1 6 6 5 5 1 2 6 3 6 9 10 10 10 10 7 6 6 10 8 9 12 10 13 13 14 13 10 6 2 9 13 8 5 5 5 7 8 11 12 11 14 13 14 15 16 16 15 14
Wind_Direction
25 324 168 88 48 62 331 308 256 299 304 237 133 168 208 233 171 207 151 152 159 161 163 160 158 155 153 150 146 142 140 139 137 135 133 130 127 120 112 105 105 107 109 110 110 108 105 106 108
25 114 92 85 80 61 297 284 296 261 230 137 120 103 70 300 30 82 126 159 163 161 164 162 161 160 159 156 153 150 147 146 145 144 142 139 135 129 120 114 110 114 114 112 110 108 105 103 102
93 127 78 90 89 142 223 236 272 293 133 117 98 59 100 279 61 155 159 157 164 164 166 165 166 165 164 162 160 158 154 154 154 154 152 147 141 136 130 122 117 116 118 119 117 112 106 98 91
126 26 32 71 173 248 233 278 260 286 289 80 107 17 49 338 164 179 159 162 167 167 168 168 170 170 168 167 167 164 161 161 159 159 155 151 147 141 135 131 128 124 122 123 121 119 111 96 84
53 61 61 82 275 260 260 266 291 245 24 119 110 155 38 24 144 158 163 165 169 168 169 172 174 176 175 173 171 170 168 167 164 162 160 157 153 148 143 140 137 134 133 129 126 123 114 101 96
41 98 60 33 287 283 286 258 306 275 66 48 99 117 44 94 140 157 165 168 174 170 172 174 179 181 181 180 179 178 175 172 171 168 166 164 163 158 155 153 146 142 141 139 137 132 124 113 96
108 77 160 191 279 314 282 336 345 83 65 39 110 81 321 274 159 156 167 171 173 174 176 180 181 183 187 187 186 184 183 179 178 176 174 173 172 170 164 169 168 159 154 157 146 152 147 188 198
104 90 103 250 141 275 310 335 317 72 90 137 112 144 228 168 151 162 166 172 177 179 182 187 186 185 187 191 191 190 190 188 187 184 182 183 183 183 181 183 184 188 216 223 209 218 260 268 278
119 65 157 247 217 244 333 14 308 290 68 24 120 169 168 146 160 159 161 171 181 189 191 190 188 189 189 193 194 195 198 199 198 195 192 190 192 196 197 197 201 215 221 233 247 257 273 273 267
87 103 213 226 258 286 265 180 291 354 10 277 41 56 130 144 156 163 175 182 190 195 195 195 195 195 194 196 197 199 200 202 204 205 202 202 202 204 211 210 217 225 234 247 258 268 274 276 279
168 174 206 270 240 255 269 311 223 171 262 235 199 153 150 157 170 184 196 192 195 196 193 198 199 200 201 201 200 202 203 205 206 211 212 212 212 213 217 219 222 228 236 248 259 266 271 277 286
43 222 200 266 258 293 281 232 176 185 242 304 176 162 157 170 187 194 200 200 201 200 198 200 203 202 205 207 207 204 205 208 210 215 217 218 216 219 221 225 226 232 239 252 263 268 273 273 282
177 269 192 278 293 254 310 266 201 236 259 11 136 160 178 188 194 203 205 208 205 209 208 206 207 207 205 211 215 213 212 213 217 219 220 224 226 226 227 229 230 234 245 255 262 267 263 268 272
203 242 279 281 294 246 290 326 139 328 239 169 160 185 184 192 198 195 205 212 209 215 215 213 213 213 213 212 218 220 221 222 224 225 227 229 232 234 235 236 238 245 253 260 265 270 277 274 277
288 318 335 1 358 339 197 346 240 292 297 252 218 194 189 201 197 210 212 213 213 217 220 218 217 217 218 215 218 221 223 226 227 230 232 234 237 241 240 243 247 252 262 269 269 268 273 281 282
29 53 42 299 338 345 93 290 304 349 291 307 288 197 224 217 214 219 221 218 221 223 229 223 223 222 220 220 221 224 226 230 233 233 236 240 242 243 247 247 246 252 264 274 271 274 282 288 288
10 27 348 326 18 67 53 283 52 3 19 357 339 248 211 222 238 235 227 225 225 226 232 224 224 226 220 220 225 226 230 233 235 236 238 243 244 247 250 250 252 257 263 278 290 289 290 294 300
325 351 321 279 278 18 350 271 350 10 8 12 358 353 241 229 241 256 258 271 300 335 340 260 237 246 243 228 229 234 234 238 237 240 240 246 247 250 254 257 259 263 265 264 274 294 292 293 295
156 199 267 270 240 232 273 271 14 332 20 10 3 4 15 334 337 328 322 329 308 317 311 321 301 274 275 256 247 246 247 249 249 247 247 249 255 258 260 259 264 265 260 256 259 259 271 270 262
189 267 279 283 294 153 264 174 149 25 24 11 13 22 19 24 32 36 43 52 44 27 7 345 326 306 287 272 257 251 267 259 256 265 255 258 248 253 250 247 247 238 221 215 208 189 203 229 235
199 192 249 218 346 271 96 334 11 33 53 10 17 17 31 43 59 52 57 59 57 52 42 39 35 30 23 270 261 249 250 237 166 218 205 178 230 244 229 229 232 231 221 213 206 218 206 255 246
273 211 238 245 111 231 108 262 285 328 358 28 11 20 18 21 31 55 61 57 54 55 57 53 46 46 42 36 37 28 18 29 73 58 46 103 207 263 150 60 247 246 237 225 241 229 237 271 239
225 264 208 238 180 114 298 105 260 358 333 14 18 20 19 27 33 41 51 57 61 64 68 73 65 55 53 43 42 33 46 38 66 28 48 64 72 141 218 239 240 274 252 241 234 238 253 251 238
237 96 43 54 96 132 198 141 271 263 260 318 13 26 25 33 36 53 62 71 69 71 63 62 65 62 53 46 45 50 54 65 66 70 58 60 56 47 65 159 221 233 230 244 263 277 269 276 253
92 69 323 333 358 225 126 110 236 196 193 244 283 45 44 31 57 64 71 76 79 78 74 70 70 72 81 73 61 57 55 56 57 52 43 43 51 48 45 41 359 293 281 288 293 295 297 289 271
179 160 165 230 211 253 308 231 243 193 138 129 162 212 70 75 88 87 87 90 87 88 87 83 80 80 73 82 90 82 67 53 51 51 50 42 42 46 39 34 25 23 9 355 338 322 304 290 292
183 176 155 102 21 60 248 300 276 179 206 198 199 192 194 168 151 133 102 84 83 86 88 96 102 95 75 71 80 95 90 61 47 44 41 35 25 26 15 21 16 8 6 5 2 353 335 311 301
135 150 86 16 187 252 271 260 233 210 212 207 202 197 204 204 177 100 88 101 97 98 101 106 106 90 77 66 34 67 55 81 79 46 20 19 3 10 356 354 356 357 355 1 1 5 358 344 309
128 125 55 116 137 194 234 249 221 204 187 198 209 196 198 209 201 150 167 165 135 153 140 131 130 112 103 82 51 24 13 15 6 31 346 335 333 347 342 334 335 337 342 348 356 357 7 4 353
145 170 148 135 220 192 162 268 309 204 188 186 203 196 199 200 202 218 232 253 200 185 194 193 159 144 130 131 159 177 6 355 355 8 355 337 325 329 317 308 312 314 318 325 336 342 347 355 357